{"data":{"norad_id":68783,"intl_designator":"2026-086T","name":"STARLINK-37364","alt_names":[],"object_type":"PAYLOAD","status":"ACTIVE","operator":null,"country":"US","launch_date":"2026-04-19","launch_site_code":"AFWTR","launch_vehicle":null,"mission":null,"orbit_class":"UNKNOWN","rcs_meters":null,"size_class":null,"mass_kg":null,"dimensions":null,"purposes":["comms"],"wikipedia_slug":null,"has_3d_model":false,"image_url":null,"decayed_at":null,"tle_current":{"epoch":"2026-09-19T19:40:35.236128Z","epoch_age_seconds":98835,"freshness":"FRESH","line1":"1 68783U 26086T   26262.81985227  .00010052  00000+0  31306-3 0  9997","line2":"2 68783  97.2823 298.2993 0001197 266.8551  93.2554 15.33466210 23585","mean_motion":15.3346621,"eccentricity":0.0001197,"inclination_deg":97.2823,"raan_deg":298.2993,"arg_perigee_deg":266.8551,"mean_anomaly_deg":93.2554,"bstar":0.00031306,"rev_number":2358,"period_min":93.904905801609,"perigee_km":464.66088820483,"apogee_km":466.29925013119,"semimajor_km":6843.617069168,"source":"CELESTRAK","updated_at":"2026-09-20T09:00:44.002190Z"}}}